TimeCDT,TemperatureF,Dew PointF,Humidity,Sea Level PressureIn,VisibilityMPH,Wind Direction,Wind SpeedMPH,Gust SpeedMPH,PrecipitationIn,Events,Conditions,WindDirDegrees,DateUTC
12:13 AM,42.8,33.8,70,30.10,10.0,North,8.1,-,N/A,,Clear,360,2013-05-11 05:13:00
12:33 AM,41.0,33.8,76,30.11,10.0,NNW,11.5,-,N/A,,Clear,340,2013-05-11 05:33:00
12:53 AM,41.0,32.0,70,30.11,10.0,North,11.5,16.1,N/A,,Clear,350,2013-05-11 05:53:00
1:13 AM,39.2,32.0,75,30.12,10.0,North,10.4,-,N/A,,Clear,350,2013-05-11 06:13:00
1:33 AM,39.2,30.2,70,30.12,10.0,North,11.5,-,N/A,,Clear,350,2013-05-11 06:33:00
1:53 AM,39.2,30.2,70,30.13,10.0,NNW,11.5,-,N/A,,Clear,340,2013-05-11 06:53:00
2:13 AM,37.4,30.2,75,30.14,10.0,NNW,10.4,-,N/A,,Clear,330,2013-05-11 07:13:00
2:33 AM,37.4,30.2,75,30.15,10.0,NNW,12.7,-,N/A,,Clear,340,2013-05-11 07:33:00
2:53 AM,37.4,28.4,70,30.16,10.0,North,13.8,-,N/A,,Scattered Clouds,350,2013-05-11 07:53:00
3:13 AM,37.4,26.6,65,30.15,10.0,NNW,15.0,20.7,N/A,,Scattered Clouds,340,2013-05-11 08:13:00
3:33 AM,37.4,26.6,65,30.16,10.0,NNW,17.3,-,N/A,,Scattered Clouds,340,2013-05-11 08:33:00
3:53 AM,37.4,28.4,70,30.16,10.0,North,16.1,19.6,N/A,,Scattered Clouds,350,2013-05-11 08:53:00
4:13 AM,37.4,28.4,70,30.16,10.0,NNW,12.7,-,N/A,,Mostly Cloudy,340,2013-05-11 09:13:00
4:33 AM,37.4,30.2,75,30.17,10.0,North,15.0,21.9,N/A,,Scattered Clouds,350,2013-05-11 09:33:00
4:53 AM,35.6,30.2,81,30.18,10.0,NNW,12.7,21.9,N/A,,Scattered Clouds,340,2013-05-11 09:53:00
5:13 AM,37.4,30.2,75,30.18,10.0,NNW,20.7,28.8,N/A,,Mostly Cloudy,340,2013-05-11 10:13:00
5:33 AM,37.4,30.2,75,30.19,10.0,NNW,19.6,23.0,N/A,,Scattered Clouds,330,2013-05-11 10:33:00
5:53 AM,37.4,30.2,75,30.19,10.0,North,23.0,38.0,N/A,,Mostly Cloudy,350,2013-05-11 10:53:00
6:13 AM,35.6,30.2,81,30.21,10.0,North,19.6,32.2,N/A,,Mostly Cloudy,350,2013-05-11 11:13:00
6:33 AM,35.6,30.2,81,30.21,10.0,North,20.7,29.9,N/A,,Overcast,350,2013-05-11 11:33:00
6:53 AM,35.6,28.4,75,30.22,10.0,NNW,19.6,26.5,N/A,,Mostly Cloudy,340,2013-05-11 11:53:00
7:13 AM,35.6,28.4,75,30.23,10.0,NNW,17.3,27.6,N/A,,Scattered Clouds,340,2013-05-11 12:13:00
7:33 AM,35.6,30.2,81,30.24,10.0,NNW,24.2,32.2,N/A,,Clear,340,2013-05-11 12:33:00
7:53 AM,37.4,28.4,70,30.24,10.0,North,21.9,34.5,N/A,,Clear,350,2013-05-11 12:53:00
8:13 AM,37.4,26.6,65,30.24,10.0,North,20.7,36.8,N/A,,Clear,350,2013-05-11 13:13:00
8:33 AM,39.2,26.6,61,30.25,10.0,NNW,26.5,38.0,N/A,,Clear,340,2013-05-11 13:33:00
8:53 AM,39.2,24.8,56,30.25,10.0,North,24.2,36.8,N/A,,Scattered Clouds,350,2013-05-11 13:53:00
9:13 AM,39.2,24.8,56,30.25,10.0,NNW,28.8,34.5,N/A,,Scattered Clouds,340,2013-05-11 14:13:00
9:33 AM,41.0,23.0,49,30.25,10.0,North,21.9,42.6,N/A,,Scattered Clouds,360,2013-05-11 14:33:00
9:53 AM,39.2,23.0,52,30.26,10.0,NNW,29.9,39.1,N/A,,Scattered Clouds,340,2013-05-11 14:53:00
10:13 AM,42.8,24.8,49,30.26,10.0,NNW,26.5,38.0,N/A,,Scattered Clouds,340,2013-05-11 15:13:00
10:33 AM,41.0,24.8,53,30.26,10.0,NNW,24.2,38.0,N/A,,Mostly Cloudy,330,2013-05-11 15:33:00
10:53 AM,41.0,21.2,45,30.26,10.0,North,25.3,38.0,N/A,,Scattered Clouds,350,2013-05-11 15:53:00
11:13 AM,42.8,23.0,46,30.26,10.0,NNW,27.6,33.4,N/A,,Scattered Clouds,330,2013-05-11 16:13:00
11:33 AM,42.8,23.0,46,30.26,10.0,North,25.3,33.4,N/A,,Scattered Clouds,350,2013-05-11 16:33:00
11:53 AM,42.8,24.8,49,30.27,10.0,NNW,28.8,34.5,N/A,,Scattered Clouds,330,2013-05-11 16:53:00
12:33 PM,44.6,23.0,43,30.26,10.0,North,20.7,36.8,N/A,,Mostly Cloudy,350,2013-05-11 17:33:00
12:53 PM,44.6,21.2,39,30.27,10.0,NNW,25.3,33.4,N/A,,Scattered Clouds,340,2013-05-11 17:53:00
1:13 PM,46.4,21.2,37,30.25,10.0,North,21.9,34.5,N/A,,Scattered Clouds,350,2013-05-11 18:13:00
1:33 PM,46.4,21.2,37,30.26,10.0,NNW,25.3,35.7,N/A,,Scattered Clouds,340,2013-05-11 18:33:00
1:53 PM,46.4,21.2,37,30.25,10.0,North,18.4,35.7,N/A,,Scattered Clouds,350,2013-05-11 18:53:00
2:13 PM,48.2,21.2,34,30.25,10.0,NNW,20.7,35.7,N/A,,Scattered Clouds,340,2013-05-11 19:13:00
2:33 PM,48.2,21.2,34,30.25,10.0,NNW,28.8,40.3,N/A,,Scattered Clouds,330,2013-05-11 19:33:00
2:53 PM,48.2,19.4,32,30.25,10.0,NNW,23.0,40.3,N/A,,Scattered Clouds,340,2013-05-11 19:53:00
3:13 PM,48.2,19.4,32,30.25,10.0,NNW,25.3,33.4,N/A,,Scattered Clouds,340,2013-05-11 20:13:00
3:33 PM,48.2,19.4,32,30.23,10.0,North,18.4,36.8,N/A,,Scattered Clouds,10,2013-05-11 20:33:00
3:53 PM,50.0,19.4,30,30.23,10.0,North,19.6,29.9,N/A,,Scattered Clouds,360,2013-05-11 20:53:00
4:13 PM,48.2,17.6,30,30.23,10.0,North,19.6,31.1,N/A,,Scattered Clouds,350,2013-05-11 21:13:00
4:33 PM,48.2,19.4,32,30.23,10.0,North,19.6,31.1,N/A,,Scattered Clouds,360,2013-05-11 21:33:00
4:53 PM,50.0,17.6,28,30.22,10.0,North,21.9,33.4,N/A,,Scattered Clouds,350,2013-05-11 21:53:00
5:13 PM,48.2,17.6,30,30.23,10.0,North,16.1,34.5,N/A,,Clear,360,2013-05-11 22:13:00
5:33 PM,50.0,19.4,30,30.23,10.0,North,23.0,34.5,N/A,,Scattered Clouds,350,2013-05-11 22:33:00
5:53 PM,50.0,19.4,30,30.22,10.0,North,19.6,31.1,N/A,,Clear,360,2013-05-11 22:53:00
6:13 PM,48.2,17.6,30,30.23,10.0,North,23.0,32.2,N/A,,Clear,350,2013-05-11 23:13:00
6:33 PM,48.2,17.6,30,30.23,10.0,North,23.0,32.2,N/A,,Clear,350,2013-05-11 23:33:00
6:53 PM,48.2,17.6,30,30.23,10.0,North,20.7,29.9,N/A,,Clear,350,2013-05-11 23:53:00
7:13 PM,48.2,17.6,30,30.22,10.0,North,18.4,27.6,N/A,,Clear,360,2013-05-12 00:13:00
7:33 PM,48.2,15.8,27,30.23,10.0,NNW,21.9,29.9,N/A,,Clear,340,2013-05-12 00:33:00
7:53 PM,46.4,15.8,29,30.23,10.0,NNW,20.7,26.5,N/A,,Clear,340,2013-05-12 00:53:00
8:13 PM,46.4,15.8,29,30.23,10.0,North,17.3,25.3,N/A,,Clear,350,2013-05-12 01:13:00
8:33 PM,44.6,15.8,31,30.23,10.0,North,18.4,24.2,N/A,,Clear,350,2013-05-12 01:33:00
8:53 PM,42.8,15.8,34,30.23,10.0,North,13.8,23.0,N/A,,Clear,350,2013-05-12 01:53:00
9:13 PM,42.8,15.8,34,30.24,10.0,North,8.1,-,N/A,,Clear,360,2013-05-12 02:13:00
9:33 PM,42.8,15.8,34,30.24,10.0,North,6.9,-,N/A,,Clear,360,2013-05-12 02:33:00
9:53 PM,39.2,15.8,39,30.24,10.0,North,4.6,-,N/A,,Clear,10,2013-05-12 02:53:00
10:13 PM,41.0,15.8,36,30.24,10.0,North,6.9,-,N/A,,Clear,10,2013-05-12 03:13:00
10:33 PM,39.2,15.8,39,30.24,10.0,North,4.6,-,N/A,,Clear,10,2013-05-12 03:33:00
10:53 PM,37.4,17.6,45,30.25,10.0,North,4.6,-,N/A,,Clear,10,2013-05-12 03:53:00
11:13 PM,35.6,17.6,48,30.25,10.0,North,3.5,-,N/A,,Clear,360,2013-05-12 04:13:00
11:33 PM,33.8,17.6,52,30.25,10.0,North,6.9,-,N/A,,Clear,350,2013-05-12 04:33:00
11:53 PM,33.8,17.6,52,30.25,10.0,North,5.8,-,N/A,,Clear,360,2013-05-12 04:53:00